Погода в Берёзовке

Россия / Пермский край     57°36′27″N   57°18′21″E
темп.,
°C
ветер,
м/с
пор.,
м/с
влажн.,
%
обл.,
%
осадки,
мм/ч
давл.,
гПа
погр.,
м
16 мая, вс
вс1623:00+17вюв3485100 7.6 101870
02:00+17ююз337672 0.0 101824
05:00+16юз4976100 0.0 1018132
08:00+20юз496712 0.0 1018299
11:00+26юз684652 0.0 1018718
14:00+29юз610345 0.0 10182375
17:00+28юз710375 0.0 10171861
20:00+24юз512515 0.0 1016255
17 мая, пн
пн1723:00+20юз513595 0.0 1016224
02:00+17юз386646 0.0 1016131
05:00+16ююз49705 0.0 1016146
08:00+20юз511647 0.0 1017342
11:00+25зюз6104830 0.0 10171118
14:00+27з815395 0.0 10162643
17:00+27з6114110 0.0 10152875
20:00+23з4955100 0.0 1015187
18 мая, вт
вт1823:00+18з366244 0.1 101699
02:00+16зсз49740 0.0 1016172
05:00+14сз368481 0.0 1017120
08:00+16ссз57779 0.0 1019613
11:00+17ссз6765100 0.0 10201199
14:00+18с675638 0.0 10211403
17:00+20св665121 0.0 10211577
20:00+16всв466894 0.0 1022347
19 мая, ср
ср1923:00+12в49784 0.0 1024173
02:00+9в39825 0.0 1025214
05:00+7в39885 0.0 1026184
08:00+12вюв467037 0.0 1027479
11:00+16вюв3450100 0.0 1025894
14:00+19вюв3338100 0.0 10241132
17:00+21юв233541 0.0 10231163
20:00+19юв114839 0.0 102211
20 мая, чт
чт2023:00+14ююв22566 0.0 102311
02:00+12ююв225917 0.0 102311
05:00+10юв226423 0.0 102311
08:00+14ю246070 0.0 1023207
11:00+20юз355165 0.0 1022644
14:00+24юз454041 0.0 10201583
17:00+24юз563761 0.0 10201771
20:00+20юз48582 0.0 1019177